Powrót do katalogu

STARLINK-37427

AktywnyŁącznośćVLEO
NORAD 69381·PAYLOAD·🇺🇸 United States

Wystrzelony Jun 4, 2026 z Cape Canaveral Space Force Station

Loading…

Następne Przeloty (najbliższe 24 godziny)

TLE

ŚwieżeSource: CelesTrak SupGP

Epoka: Sep 14, 2026, 15:27 UTC

1 69381C 26123AE  26257.64423611  .00068298  00000+0  20183-2 0  2575
2 69381  53.1571 169.0747 0001274  93.5644 166.7918 15.34349338    12

Śledź STARLINK-37427 w czasie rzeczywistym z AllMySat

Download on the App Store